Погода в Слащевской

Россия / Волгоградская область     49°51′28″N   42°20′08″E
темп.,
°C
ветер,
м/с
пор.,
м/с
влажн.,
%
обл.,
%
осадки,
мм/ч
давл.,
гПа
погр.,
м
9 мая, вс
вс900:00+14ююв41088100 0.1 1008188
03:00+13ю31092100 2.0 1007255
06:00+13юз4795100 3.3 1007391
09:00+11зсз6793100 5.4 1008403
12:00+8сз71088100 4.3 1011588
15:00+8сз61083100 4.4 1013795
18:00+7сз71085100 0.1 1015932
21:00+7сз61188100 1.0 1016861
10 мая, пн
пн1000:00+6ссз71384100 0.1 1016809
03:00+5сз71289100 0.8 1016824
06:00+6ссз6988100 0.3 1016944
09:00+6ссз81492100 1.8 1013754
12:00+6сз71393100 3.4 1012881
15:00+8ссз71495100 5.8 1008631
18:00+12св81295100 2.7 1006655
21:00+7в71197100 3.1 1009567
11 мая, вт
вт1100:00+6в61093100 0.1 1012842
03:00+6в61193100 0.1 1013684
06:00+6в81391100 0.1 1014988
09:00+7в91489100 0.4 10171239
12:00+7вюв91388100 0.2 10191096
15:00+8вюв81486100 0.6 10221274
18:00+9вюв31091100 1.4 1023456
21:00+7св3390100 1.5 102341
12 мая, ср
ср1200:00+7св368720 0.0 1022104
03:00+7всв41188100 0.0 1022225
06:00+8в4108776 0.0 1022249
09:00+13вюв4670100 0.0 1021465
12:00+16вюв3355100 0.0 10211062
15:00+18вюв234715 0.0 10201521
18:00+18в125676 0.0 1020143
21:00+13всв22790 0.0 101910
13 мая, чт
чт1300:00+11св22871 0.0 101911
03:00+11ссв22882 0.0 101910
06:00+12св23875 0.0 1019106
09:00+18всв227023 0.0 1019532
12:00+22юв345582 0.0 10181417
15:00+24юв45465 0.0 10181757
18:00+22юв355996 0.0 1017174
21:00+18вюв2271100 0.0 101811